contact:dominique.lefevre@mio.osupytheas.fr, maurice.libes@osupytheas.fr, didier.mallarino@osupytheas.fr
Project:EMSO http://www.emso-fr.org/EMSO-France
Depth: 2436.0 m
Title:EMSO Ligure Ouest : Data MII capteur MICROCAT
DateTime_Computer,Latitude,Longitude,Temperature,Conductivity,Pressure,DateTime_Instrument
DateTime_Computer,Latitude,Longitude,degC,S m-1,dbar,DateTime_Instrument
2019-12-23T00:02:31Z,42.805,6.029,13.2968,4.59996,2469.797,2019-12-23T02:03:01Z
2019-12-23T00:05:34Z,42.805,6.029,13.2974,4.59981,2469.783,2019-12-23T02:06:04Z
2019-12-23T00:08:37Z,42.805,6.029,13.2967,4.59978,2469.783,2019-12-23T02:09:08Z
2019-12-23T00:11:40Z,42.805,6.029,13.2967,4.59974,2469.797,2019-12-23T02:12:11Z
2019-12-23T00:14:43Z,42.805,6.029,13.2964,4.59976,2469.797,2019-12-23T02:15:14Z
2019-12-23T00:17:47Z,42.805,6.029,13.2970,4.59978,2469.806,2019-12-23T02:18:17Z
2019-12-23T00:20:50Z,42.805,6.029,13.2967,4.59969,2469.76,2019-12-23T02:21:20Z
2019-12-23T00:23:53Z,42.805,6.029,13.2965,4.59991,2469.797,2019-12-23T02:24:24Z
2019-12-23T00:26:56Z,42.805,6.029,13.2977,4.60000,2469.806,2019-12-23T02:27:27Z
2019-12-23T00:30:00Z,42.805,6.029,13.2967,4.60004,2469.83,2019-12-23T02:30:30Z
2019-12-23T00:33:03Z,42.805,6.029,13.2971,4.59979,2469.821,2019-12-23T02:33:33Z
2019-12-23T00:36:06Z,42.805,6.029,13.2967,4.60003,2469.806,2019-12-23T02:36:37Z
2019-12-23T00:39:09Z,42.805,6.029,13.2964,4.59980,2469.806,2019-12-23T02:39:40Z
2019-12-23T00:42:12Z,42.805,6.029,13.2972,4.59982,2469.83,2019-12-23T02:42:43Z
2019-12-23T00:45:16Z,42.805,6.029,13.2963,4.59971,2469.844,2019-12-23T02:45:46Z
2019-12-23T00:48:19Z,42.805,6.029,13.2970,4.59971,2469.83,2019-12-23T02:48:50Z
2019-12-23T00:51:22Z,42.805,6.029,13.2968,4.59973,2469.844,2019-12-23T02:51:53Z
2019-12-23T00:54:25Z,42.805,6.029,13.2972,4.59988,2469.853,2019-12-23T02:54:56Z
2019-12-23T00:57:29Z,42.805,6.029,13.2969,4.59979,2469.853,2019-12-23T02:57:59Z
2019-12-23T01:00:32Z,42.805,6.029,13.2967,4.59975,2469.83,2019-12-23T03:01:02Z
2019-12-23T01:03:35Z,42.805,6.029,13.2965,4.59982,2469.83,2019-12-23T03:04:06Z
2019-12-23T01:06:38Z,42.805,6.029,13.2962,4.59992,2469.821,2019-12-23T03:07:09Z
2019-12-23T01:09:41Z,42.805,6.029,13.2964,4.59973,2469.853,2019-12-23T03:10:12Z
2019-12-23T01:12:44Z,42.805,6.029,13.2965,4.59973,2469.89,2019-12-23T03:13:15Z
2019-12-23T01:15:48Z,42.805,6.029,13.2963,4.59978,2469.867,2019-12-23T03:16:18Z
2019-12-23T01:18:51Z,42.805,6.029,13.2966,4.59979,2469.89,2019-12-23T03:19:22Z
2019-12-23T01:21:54Z,42.805,6.029,13.2971,4.59989,2469.83,2019-12-23T03:22:25Z
2019-12-23T01:24:57Z,42.805,6.029,13.2970,4.59981,2469.89,2019-12-23T03:25:28Z
2019-12-23T01:28:01Z,42.805,6.029,13.2976,4.59993,2469.914,2019-12-23T03:28:31Z
2019-12-23T01:31:04Z,42.805,6.029,13.2966,4.59986,2469.876,2019-12-23T03:31:35Z
2019-12-23T01:34:07Z,42.805,6.029,13.2962,4.59973,2469.876,2019-12-23T03:34:38Z
2019-12-23T01:37:11Z,42.805,6.029,13.2971,4.59980,2469.914,2019-12-23T03:37:41Z
2019-12-23T01:40:14Z,42.805,6.029,13.2969,4.59986,2469.867,2019-12-23T03:40:44Z
2019-12-23T01:43:17Z,42.805,6.029,13.2965,4.59998,2469.876,2019-12-23T03:43:48Z
2019-12-23T01:46:20Z,42.805,6.029,13.2970,4.59978,2469.914,2019-12-23T03:46:51Z
2019-12-23T01:49:23Z,42.805,6.029,13.2968,4.59986,2469.876,2019-12-23T03:49:54Z
2019-12-23T01:52:26Z,42.805,6.029,13.2971,4.59989,2469.89,2019-12-23T03:52:57Z
2019-12-23T01:55:30Z,42.805,6.029,13.2974,4.59985,2469.914,2019-12-23T03:56:00Z
2019-12-23T01:58:33Z,42.805,6.029,13.2968,4.59983,2469.89,2019-12-23T03:59:04Z
2019-12-23T02:01:36Z,42.805,6.029,13.2967,4.59978,2469.9,2019-12-23T04:02:07Z
2019-12-23T02:04:39Z,42.805,6.029,13.2968,4.59999,2469.9,2019-12-23T04:05:10Z
2019-12-23T02:07:43Z,42.805,6.029,13.2976,4.59990,2469.914,2019-12-23T04:08:13Z
2019-12-23T02:10:46Z,42.805,6.029,13.2971,4.59986,2469.9,2019-12-23T04:11:17Z
2019-12-23T02:13:49Z,42.805,6.029,13.2968,4.59988,2469.9,2019-12-23T04:14:20Z
2019-12-23T02:16:53Z,42.805,6.029,13.2982,4.59996,2469.914,2019-12-23T04:17:23Z
2019-12-23T02:19:56Z,42.805,6.029,13.2967,4.59996,2469.9,2019-12-23T04:20:26Z
2019-12-23T02:22:59Z,42.805,6.029,13.2966,4.59978,2469.914,2019-12-23T04:23:30Z
2019-12-23T02:26:02Z,42.805,6.029,13.2968,4.59985,2469.96,2019-12-23T04:26:33Z
2019-12-23T02:29:05Z,42.805,6.029,13.2968,4.59983,2469.923,2019-12-23T04:29:36Z
2019-12-23T02:32:09Z,42.805,6.029,13.2967,4.59975,2469.923,2019-12-23T04:32:39Z
2019-12-23T02:35:12Z,42.805,6.029,13.2964,4.59975,2469.96,2019-12-23T04:35:42Z
2019-12-23T02:38:15Z,42.805,6.029,13.2959,4.59976,2469.9,2019-12-23T04:38:46Z
2019-12-23T02:41:18Z,42.805,6.029,13.2968,4.60000,2469.923,2019-12-23T04:41:49Z
2019-12-23T02:44:21Z,42.805,6.029,13.2965,4.59976,2469.97,2019-12-23T04:44:52Z
2019-12-23T02:47:25Z,42.805,6.029,13.2967,4.59979,2469.947,2019-12-23T04:47:55Z
2019-12-23T02:50:28Z,42.805,6.029,13.2966,4.59978,2469.947,2019-12-23T04:50:59Z
2019-12-23T02:53:31Z,42.805,6.029,13.2969,4.59985,2469.923,2019-12-23T04:54:02Z
2019-12-23T02:56:34Z,42.805,6.029,13.2986,4.60006,2469.923,2019-12-23T04:57:05Z
2019-12-23T02:59:38Z,42.805,6.029,13.2968,4.60002,2469.96,2019-12-23T05:00:08Z
2019-12-23T03:02:41Z,42.805,6.029,13.2969,4.59990,2469.923,2019-12-23T05:03:11Z
2019-12-23T03:05:44Z,42.805,6.029,13.2969,4.59994,2469.947,2019-12-23T05:06:15Z
2019-12-23T03:08:47Z,42.805,6.029,13.2964,4.59976,2469.947,2019-12-23T05:09:18Z
2019-12-23T03:11:51Z,42.805,6.029,13.2966,4.59980,2469.96,2019-12-23T05:12:21Z
2019-12-23T03:14:54Z,42.805,6.029,13.2969,4.59983,2469.97,2019-12-23T05:15:24Z
2019-12-23T03:17:57Z,42.805,6.029,13.2969,4.59989,2469.97,2019-12-23T05:18:28Z
2019-12-23T03:21:00Z,42.805,6.029,13.2972,4.59979,2469.947,2019-12-23T05:21:31Z
2019-12-23T03:24:03Z,42.805,6.029,13.2978,4.59997,2469.984,2019-12-23T05:24:34Z
2019-12-23T03:27:07Z,42.805,6.029,13.2976,4.60008,2469.984,2019-12-23T05:27:37Z
2019-12-23T03:30:10Z,42.805,6.029,13.2971,4.60002,2469.984,2019-12-23T05:30:40Z
2019-12-23T03:33:13Z,42.805,6.029,13.2972,4.59990,2469.984,2019-12-23T05:33:44Z
2019-12-23T03:36:16Z,42.805,6.029,13.2961,4.59992,2470.03,2019-12-23T05:36:47Z
2019-12-23T03:39:19Z,42.805,6.029,13.2966,4.59994,2469.993,2019-12-23T05:39:50Z
2019-12-23T03:42:23Z,42.805,6.029,13.2970,4.60009,2469.947,2019-12-23T05:42:53Z
2019-12-23T03:45:26Z,42.805,6.029,13.2969,4.59983,2469.984,2019-12-23T05:45:57Z
2019-12-23T03:48:29Z,42.805,6.029,13.2967,4.59984,2469.993,2019-12-23T05:49:00Z
2019-12-23T03:51:32Z,42.805,6.029,13.2973,4.59994,2469.984,2019-12-23T05:52:03Z
2019-12-23T03:54:36Z,42.805,6.029,13.2975,4.59987,2469.984,2019-12-23T05:55:06Z
2019-12-23T03:57:39Z,42.805,6.029,13.2969,4.59986,2470.007,2019-12-23T05:58:10Z
2019-12-23T04:00:42Z,42.805,6.029,13.2981,4.59986,2469.993,2019-12-23T06:01:13Z
2019-12-23T04:03:45Z,42.805,6.029,13.2968,4.59998,2470.017,2019-12-23T06:04:16Z
2019-12-23T04:06:49Z,42.805,6.029,13.2965,4.59988,2469.993,2019-12-23T06:07:19Z
2019-12-23T04:09:52Z,42.805,6.029,13.2971,4.59981,2469.993,2019-12-23T06:10:23Z
2019-12-23T04:12:55Z,42.805,6.029,13.2967,4.60001,2469.993,2019-12-23T06:13:26Z
2019-12-23T04:15:58Z,42.805,6.029,13.2968,4.59999,2470.03,2019-12-23T06:16:29Z
2019-12-23T04:19:01Z,42.805,6.029,13.2967,4.60004,2470.017,2019-12-23T06:19:32Z
2019-12-23T04:22:05Z,42.805,6.029,13.2964,4.60007,2470.04,2019-12-23T06:22:35Z
2019-12-23T04:25:08Z,42.805,6.029,13.2966,4.60015,2469.993,2019-12-23T06:25:38Z
2019-12-23T04:28:11Z,42.805,6.029,13.2988,4.60001,2470.04,2019-12-23T06:28:42Z
2019-12-23T04:31:14Z,42.805,6.029,13.2971,4.59996,2470.04,2019-12-23T06:31:45Z
2019-12-23T04:34:18Z,42.805,6.029,13.2969,4.60013,2470.03,2019-12-23T06:34:48Z
2019-12-23T04:37:21Z,42.805,6.029,13.2966,4.60022,2470.03,2019-12-23T06:37:51Z
2019-12-23T04:40:24Z,42.805,6.029,13.2973,4.59992,2470.04,2019-12-23T06:40:55Z
2019-12-23T04:43:27Z,42.805,6.029,13.2969,4.59983,2470.017,2019-12-23T06:43:58Z
2019-12-23T04:46:30Z,42.805,6.029,13.2979,4.59996,2470.04,2019-12-23T06:47:01Z
2019-12-23T04:49:33Z,42.805,6.029,13.2976,4.59987,2470.017,2019-12-23T06:50:04Z
2019-12-23T04:52:37Z,42.805,6.029,13.2986,4.60018,2470.04,2019-12-23T06:53:07Z
2019-12-23T04:55:40Z,42.805,6.029,13.2976,4.60029,2470.063,2019-12-23T06:56:11Z
2019-12-23T04:58:43Z,42.805,6.029,13.2973,4.60000,2470.04,2019-12-23T06:59:14Z
2019-12-23T05:01:46Z,42.805,6.029,13.2991,4.59989,2470.04,2019-12-23T07:02:17Z
2019-12-23T05:04:50Z,42.805,6.029,13.3000,4.60024,2470.03,2019-12-23T07:05:20Z
2019-12-23T05:07:53Z,42.805,6.029,13.2966,4.59986,2470.077,2019-12-23T07:08:24Z
2019-12-23T05:10:56Z,42.805,6.029,13.2974,4.60009,2470.04,2019-12-23T07:11:27Z
2019-12-23T05:13:59Z,42.805,6.029,13.2986,4.60005,2470.053,2019-12-23T07:14:30Z
2019-12-23T05:17:02Z,42.805,6.029,13.2968,4.59983,2470.03,2019-12-23T07:17:33Z
2019-12-23T05:20:06Z,42.805,6.029,13.2968,4.60001,2470.04,2019-12-23T07:20:36Z
2019-12-23T05:23:09Z,42.805,6.029,13.2979,4.60037,2470.04,2019-12-23T07:23:40Z
2019-12-23T05:26:12Z,42.805,6.029,13.2985,4.60009,2470.03,2019-12-23T07:26:43Z
2019-12-23T05:29:15Z,42.805,6.029,13.2975,4.60001,2470.053,2019-12-23T07:29:46Z
2019-12-23T05:32:18Z,42.805,6.029,13.2976,4.60005,2470.017,2019-12-23T07:32:49Z
2019-12-23T05:35:22Z,42.805,6.029,13.2964,4.60001,2470.007,2019-12-23T07:35:52Z
2019-12-23T05:38:25Z,42.805,6.029,13.2964,4.60034,2470.017,2019-12-23T07:38:55Z
2019-12-23T05:41:28Z,42.805,6.029,13.2968,4.60007,2470.017,2019-12-23T07:41:59Z
2019-12-23T05:44:31Z,42.805,6.029,13.2970,4.60003,2470.063,2019-12-23T07:45:02Z
2019-12-23T05:47:35Z,42.805,6.029,13.2971,4.60002,2470.053,2019-12-23T07:48:05Z
2019-12-23T05:50:38Z,42.805,6.029,13.2981,4.60013,2470.077,2019-12-23T07:51:08Z
2019-12-23T05:53:41Z,42.805,6.029,13.3004,4.60006,2470.04,2019-12-23T07:54:11Z
2019-12-23T05:56:44Z,42.805,6.029,13.2974,4.59999,2470.017,2019-12-23T07:57:15Z
2019-12-23T05:59:47Z,42.805,6.029,13.2982,4.60044,2470.04,2019-12-23T08:00:18Z
2019-12-23T06:02:51Z,42.805,6.029,13.2976,4.60019,2470.077,2019-12-23T08:03:21Z
2019-12-23T06:05:54Z,42.805,6.029,13.2979,4.60046,2470.017,2019-12-23T08:06:24Z
2019-12-23T06:08:57Z,42.805,6.029,13.2985,4.60021,2470.04,2019-12-23T08:09:28Z
2019-12-23T06:12:00Z,42.805,6.029,13.2972,4.60020,2470.04,2019-12-23T08:12:31Z
2019-12-23T06:15:03Z,42.805,6.029,13.2977,4.60016,2470.04,2019-12-23T08:15:34Z
2019-12-23T06:18:07Z,42.805,6.029,13.2978,4.60052,2470.077,2019-12-23T08:18:37Z
2019-12-23T06:21:10Z,42.805,6.029,13.2980,4.60038,2470.04,2019-12-23T08:21:41Z
2019-12-23T06:24:13Z,42.805,6.029,13.2982,4.60046,2470.017,2019-12-23T08:24:44Z
2019-12-23T06:27:16Z,42.805,6.029,13.2979,4.60043,2470.053,2019-12-23T08:27:47Z
2019-12-23T06:30:20Z,42.805,6.029,13.2980,4.60024,2470.077,2019-12-23T08:30:50Z
2019-12-23T06:33:23Z,42.805,6.029,13.2973,4.60007,2470.04,2019-12-23T08:33:54Z
2019-12-23T06:36:26Z,42.805,6.029,13.2976,4.60033,2470.053,2019-12-23T08:36:57Z
2019-12-23T06:39:29Z,42.805,6.029,13.2973,4.60019,2470.017,2019-12-23T08:40:00Z
2019-12-23T06:42:32Z,42.805,6.029,13.2976,4.60004,2470.04,2019-12-23T08:43:03Z
2019-12-23T06:45:36Z,42.805,6.029,13.2967,4.60014,2470.053,2019-12-23T08:46:06Z
2019-12-23T06:48:39Z,42.805,6.029,13.2991,4.60031,2470.04,2019-12-23T08:49:10Z
2019-12-23T06:51:42Z,42.805,6.029,13.2983,4.60033,2470.03,2019-12-23T08:52:13Z
2019-12-23T06:54:45Z,42.805,6.029,13.2989,4.60029,2470.04,2019-12-23T08:55:16Z
2019-12-23T06:57:48Z,42.805,6.029,13.2983,4.60018,2470.053,2019-12-23T08:58:19Z
2019-12-23T07:00:52Z,42.805,6.029,13.2981,4.60031,2470.017,2019-12-23T09:01:22Z
2019-12-23T07:03:55Z,42.805,6.029,13.2982,4.60003,2470.063,2019-12-23T09:04:26Z
2019-12-23T07:06:58Z,42.805,6.029,13.2979,4.59990,2470.04,2019-12-23T09:07:29Z
2019-12-23T07:10:01Z,42.805,6.029,13.2970,4.59987,2470.017,2019-12-23T09:10:32Z
2019-12-23T07:13:05Z,42.805,6.029,13.2967,4.59998,2470.053,2019-12-23T09:13:36Z
2019-12-23T07:16:08Z,42.805,6.029,13.2967,4.59982,2470.03,2019-12-23T09:16:39Z
2019-12-23T07:19:11Z,42.805,6.029,13.2974,4.60000,2470.04,2019-12-23T09:19:42Z
2019-12-23T07:22:15Z,42.805,6.029,13.2970,4.59987,2470.017,2019-12-23T09:22:45Z
2019-12-23T07:25:18Z,42.805,6.029,13.2977,4.60021,2470.053,2019-12-23T09:25:49Z
2019-12-23T07:28:21Z,42.805,6.029,13.2973,4.60009,2470.053,2019-12-23T09:28:52Z
2019-12-23T07:31:24Z,42.805,6.029,13.2989,4.60025,2470.04,2019-12-23T09:31:55Z
2019-12-23T07:34:28Z,42.805,6.029,13.2976,4.60011,2470.053,2019-12-23T09:34:58Z
2019-12-23T07:37:31Z,42.805,6.029,13.2996,4.60024,2470.017,2019-12-23T09:38:01Z
2019-12-23T07:40:34Z,42.805,6.029,13.2981,4.60011,2470.03,2019-12-23T09:41:05Z
2019-12-23T07:43:37Z,42.805,6.029,13.2982,4.59986,2469.993,2019-12-23T09:44:08Z
2019-12-23T07:46:41Z,42.805,6.029,13.2992,4.60038,2470.017,2019-12-23T09:47:11Z
2019-12-23T07:49:44Z,42.805,6.029,13.2998,4.60031,2470.04,2019-12-23T09:50:14Z
2019-12-23T07:52:47Z,42.805,6.029,13.2994,4.59992,2470.053,2019-12-23T09:53:18Z
2019-12-23T07:55:50Z,42.805,6.029,13.2979,4.59982,2470.053,2019-12-23T09:56:21Z
2019-12-23T07:58:54Z,42.805,6.029,13.2992,4.59991,2470.017,2019-12-23T09:59:24Z
2019-12-23T08:01:57Z,42.805,6.029,13.2961,4.59967,2470.03,2019-12-23T10:02:28Z
2019-12-23T08:05:00Z,42.805,6.029,13.2979,4.59978,2470.03,2019-12-23T10:05:31Z
2019-12-23T08:08:03Z,42.805,6.029,13.2964,4.59961,2469.993,2019-12-23T10:08:34Z
2019-12-23T08:11:07Z,42.805,6.029,13.2969,4.59968,2470.053,2019-12-23T10:11:37Z
2019-12-23T08:14:10Z,42.805,6.029,13.2976,4.59978,2470.03,2019-12-23T10:14:40Z
2019-12-23T08:17:13Z,42.805,6.029,13.2966,4.59966,2470.03,2019-12-23T10:17:44Z
2019-12-23T08:20:16Z,42.805,6.029,13.2978,4.59974,2470.007,2019-12-23T10:20:47Z
2019-12-23T08:23:19Z,42.805,6.029,13.2968,4.59968,2470.04,2019-12-23T10:23:50Z
2019-12-23T08:26:23Z,42.805,6.029,13.2963,4.59962,2470.017,2019-12-23T10:26:53Z
2019-12-23T08:29:26Z,42.805,6.029,13.2962,4.59958,2470.017,2019-12-23T10:29:56Z
2019-12-23T08:32:29Z,42.805,6.029,13.2976,4.59961,2470.04,2019-12-23T10:33:00Z
2019-12-23T08:35:32Z,42.805,6.029,13.2971,4.59974,2470.017,2019-12-23T10:36:03Z
2019-12-23T08:38:35Z,42.805,6.029,13.2968,4.59963,2470.03,2019-12-23T10:39:06Z
2019-12-23T08:41:39Z,42.805,6.029,13.2962,4.59960,2470.03,2019-12-23T10:42:09Z
2019-12-23T08:44:42Z,42.805,6.029,13.2964,4.59960,2470.053,2019-12-23T10:45:12Z
2019-12-23T08:47:45Z,42.805,6.029,13.2967,4.59962,2470.017,2019-12-23T10:48:16Z
2019-12-23T08:50:48Z,42.805,6.029,13.2960,4.59958,2470.007,2019-12-23T10:51:19Z
2019-12-23T08:53:51Z,42.805,6.029,13.2963,4.59959,2470.03,2019-12-23T10:54:22Z
2019-12-23T08:56:55Z,42.805,6.029,13.2967,4.59963,2470.053,2019-12-23T10:57:25Z
2019-12-23T08:59:58Z,42.805,6.029,13.2969,4.59965,2470.007,2019-12-23T11:00:29Z
2019-12-23T09:03:01Z,42.805,6.029,13.2960,4.59960,2469.979,2019-12-23T11:03:32Z
2019-12-23T09:06:04Z,42.805,6.029,13.2957,4.59960,2469.97,2019-12-23T11:06:35Z
2019-12-23T09:09:08Z,42.805,6.029,13.2965,4.59961,2470.017,2019-12-23T11:09:38Z
2019-12-23T09:12:11Z,42.805,6.029,13.2960,4.59958,2470.017,2019-12-23T11:12:42Z
2019-12-23T09:15:14Z,42.805,6.029,13.2960,4.59958,2470.017,2019-12-23T11:15:45Z
2019-12-23T09:18:17Z,42.805,6.029,13.2959,4.59960,2469.984,2019-12-23T11:18:48Z
2019-12-23T09:21:21Z,42.805,6.029,13.2959,4.59958,2469.984,2019-12-23T11:21:51Z
2019-12-23T09:24:24Z,42.805,6.029,13.2958,4.59962,2470.007,2019-12-23T11:24:55Z
2019-12-23T09:27:27Z,42.805,6.029,13.2961,4.59964,2469.97,2019-12-23T11:27:58Z
2019-12-23T09:30:30Z,42.805,6.029,13.2959,4.59963,2469.993,2019-12-23T11:31:01Z
2019-12-23T09:33:34Z,42.805,6.029,13.2977,4.59974,2469.97,2019-12-23T11:34:04Z
2019-12-23T09:36:37Z,42.805,6.029,13.2963,4.59967,2470.03,2019-12-23T11:37:07Z
2019-12-23T09:39:40Z,42.805,6.029,13.2964,4.59971,2469.947,2019-12-23T11:40:11Z
2019-12-23T09:42:43Z,42.805,6.029,13.2971,4.59978,2469.984,2019-12-23T11:43:14Z
2019-12-23T09:45:46Z,42.805,6.029,13.2974,4.59978,2469.947,2019-12-23T11:46:17Z
2019-12-23T09:48:50Z,42.805,6.029,13.2964,4.59974,2469.993,2019-12-23T11:49:20Z
2019-12-23T09:51:53Z,42.805,6.029,13.2964,4.59960,2469.947,2019-12-23T11:52:24Z
2019-12-23T09:54:56Z,42.805,6.029,13.2957,4.59964,2469.947,2019-12-23T11:55:27Z
2019-12-23T09:57:59Z,42.805,6.029,13.2964,4.59966,2469.947,2019-12-23T11:58:30Z
2019-12-23T10:01:03Z,42.805,6.029,13.2962,4.59959,2469.97,2019-12-23T12:01:33Z
2019-12-23T10:04:06Z,42.805,6.029,13.2985,4.59966,2469.97,2019-12-23T12:04:37Z
2019-12-23T10:07:09Z,42.805,6.029,13.2967,4.59970,2469.947,2019-12-23T12:07:40Z
2019-12-23T10:10:12Z,42.805,6.029,13.2971,4.59986,2469.96,2019-12-23T12:10:43Z
2019-12-23T10:13:16Z,42.805,6.029,13.2976,4.59979,2470.007,2019-12-23T12:13:46Z
2019-12-23T10:16:19Z,42.805,6.029,13.2976,4.59970,2469.923,2019-12-23T12:16:50Z
2019-12-23T10:19:22Z,42.805,6.029,13.2970,4.59979,2469.96,2019-12-23T12:19:53Z
2019-12-23T10:22:26Z,42.805,6.029,13.2973,4.59968,2469.984,2019-12-23T12:22:56Z
2019-12-23T10:25:29Z,42.805,6.029,13.2970,4.59976,2469.96,2019-12-23T12:25:59Z
2019-12-23T10:28:32Z,42.805,6.029,13.2977,4.59971,2469.96,2019-12-23T12:29:03Z
2019-12-23T10:31:35Z,42.805,6.029,13.2976,4.59976,2469.923,2019-12-23T12:32:06Z
2019-12-23T10:34:38Z,42.805,6.029,13.2973,4.59986,2469.937,2019-12-23T12:35:09Z
2019-12-23T10:37:42Z,42.805,6.029,13.2976,4.59971,2469.947,2019-12-23T12:38:12Z
2019-12-23T10:40:45Z,42.805,6.029,13.2964,4.59974,2469.97,2019-12-23T12:41:16Z
2019-12-23T10:43:48Z,42.805,6.029,13.2971,4.59974,2469.923,2019-12-23T12:44:19Z
2019-12-23T10:46:51Z,42.805,6.029,13.2979,4.59996,2469.923,2019-12-23T12:47:22Z
2019-12-23T10:49:54Z,42.805,6.029,13.2974,4.59970,2469.947,2019-12-23T12:50:25Z
2019-12-23T10:52:58Z,42.805,6.029,13.2975,4.59995,2469.97,2019-12-23T12:53:28Z
2019-12-23T10:56:01Z,42.805,6.029,13.2974,4.59978,2469.923,2019-12-23T12:56:32Z
2019-12-23T10:59:04Z,42.805,6.029,13.2976,4.59994,2469.923,2019-12-23T12:59:35Z
2019-12-23T11:02:07Z,42.805,6.029,13.2973,4.59983,2469.937,2019-12-23T13:02:38Z
2019-12-23T11:05:11Z,42.805,6.029,13.2972,4.59986,2469.937,2019-12-23T13:05:41Z
2019-12-23T11:08:14Z,42.805,6.029,13.2972,4.59983,2469.914,2019-12-23T13:08:44Z
2019-12-23T11:11:17Z,42.805,6.029,13.2974,4.59984,2469.923,2019-12-23T13:11:48Z
2019-12-23T11:14:20Z,42.805,6.029,13.2969,4.59991,2469.9,2019-12-23T13:14:51Z
2019-12-23T11:17:23Z,42.805,6.029,13.2967,4.59990,2469.923,2019-12-23T13:17:54Z
2019-12-23T11:20:27Z,42.805,6.029,13.2975,4.59983,2469.923,2019-12-23T13:20:57Z
2019-12-23T11:23:30Z,42.805,6.029,13.2966,4.60007,2469.923,2019-12-23T13:24:01Z
2019-12-23T11:26:33Z,42.805,6.029,13.2966,4.59988,2469.937,2019-12-23T13:27:04Z
2019-12-23T11:29:36Z,42.805,6.029,13.2973,4.59994,2469.937,2019-12-23T13:30:07Z
2019-12-23T11:32:39Z,42.805,6.029,13.2968,4.59998,2469.9,2019-12-23T13:33:10Z
2019-12-23T11:35:43Z,42.805,6.029,13.2974,4.59991,2469.923,2019-12-23T13:36:13Z
2019-12-23T11:38:46Z,42.805,6.029,13.2976,4.59981,2469.914,2019-12-23T13:39:17Z
2019-12-23T11:41:49Z,42.805,6.029,13.2965,4.60008,2469.9,2019-12-23T13:42:20Z
2019-12-23T11:44:52Z,42.805,6.029,13.2967,4.59986,2469.923,2019-12-23T13:45:23Z
2019-12-23T11:47:56Z,42.805,6.029,13.2966,4.59986,2469.9,2019-12-23T13:48:26Z
2019-12-23T11:50:59Z,42.805,6.029,13.2963,4.59999,2469.947,2019-12-23T13:51:30Z
2019-12-23T11:54:02Z,42.805,6.029,13.2964,4.59982,2469.876,2019-12-23T13:54:33Z
2019-12-23T11:57:05Z,42.805,6.029,13.2966,4.59981,2469.96,2019-12-23T13:57:36Z
2019-12-23T12:00:08Z,42.805,6.029,13.2976,4.59991,2469.937,2019-12-23T14:00:39Z
2019-12-23T12:03:12Z,42.805,6.029,13.2973,4.59998,2469.9,2019-12-23T14:03:42Z
2019-12-23T12:06:15Z,42.805,6.029,13.2965,4.59986,2469.923,2019-12-23T14:06:46Z
2019-12-23T12:09:18Z,42.805,6.029,13.2971,4.59983,2469.937,2019-12-23T14:09:49Z
2019-12-23T12:12:21Z,42.805,6.029,13.2962,4.59984,2469.9,2019-12-23T14:12:52Z
2019-12-23T12:15:25Z,42.805,6.029,13.2972,4.59986,2469.9,2019-12-23T14:15:55Z
2019-12-23T12:18:28Z,42.805,6.029,13.2966,4.59981,2469.876,2019-12-23T14:18:59Z
2019-12-23T12:21:31Z,42.805,6.029,13.2962,4.59976,2469.947,2019-12-23T14:22:02Z
2019-12-23T12:24:34Z,42.805,6.029,13.2981,4.59986,2469.937,2019-12-23T14:25:05Z
2019-12-23T12:27:38Z,42.805,6.029,13.2962,4.59980,2469.923,2019-12-23T14:28:08Z
2019-12-23T12:30:41Z,42.805,6.029,13.2968,4.59980,2469.876,2019-12-23T14:31:11Z
2019-12-23T12:33:44Z,42.805,6.029,13.2967,4.59988,2469.914,2019-12-23T14:34:15Z
2019-12-23T12:36:47Z,42.805,6.029,13.2976,4.59981,2469.853,2019-12-23T14:37:18Z
2019-12-23T12:39:50Z,42.805,6.029,13.2968,4.59988,2469.9,2019-12-23T14:40:21Z
2019-12-23T12:42:54Z,42.805,6.029,13.2971,4.59992,2469.923,2019-12-23T14:43:24Z
2019-12-23T12:45:57Z,42.805,6.029,13.2972,4.59981,2469.914,2019-12-23T14:46:28Z
2019-12-23T12:49:00Z,42.805,6.029,13.2972,4.59987,2469.886,2019-12-23T14:49:31Z
2019-12-23T12:52:03Z,42.805,6.029,13.2963,4.59977,2469.9,2019-12-23T14:52:34Z
2019-12-23T12:55:06Z,42.805,6.029,13.2967,4.59980,2469.914,2019-12-23T14:55:37Z
2019-12-23T12:58:10Z,42.805,6.029,13.2966,4.59991,2469.9,2019-12-23T14:58:40Z
2019-12-23T13:01:13Z,42.805,6.029,13.2971,4.59986,2469.9,2019-12-23T15:01:44Z
2019-12-23T13:04:16Z,42.805,6.029,13.2969,4.59985,2469.876,2019-12-23T15:04:47Z
2019-12-23T13:07:19Z,42.805,6.029,13.2961,4.59985,2469.9,2019-12-23T15:07:50Z
2019-12-23T13:10:23Z,42.805,6.029,13.2962,4.59982,2469.923,2019-12-23T15:10:53Z
2019-12-23T13:13:26Z,42.805,6.029,13.2970,4.59982,2469.937,2019-12-23T15:13:57Z
2019-12-23T13:16:29Z,42.805,6.029,13.2969,4.59983,2469.914,2019-12-23T15:17:00Z
2019-12-23T13:19:32Z,42.805,6.029,13.2964,4.59974,2469.9,2019-12-23T15:20:03Z
2019-12-23T13:22:35Z,42.805,6.029,13.2968,4.59988,2469.923,2019-12-23T15:23:06Z
2019-12-23T13:25:39Z,42.805,6.029,13.2973,4.59991,2469.937,2019-12-23T15:26:09Z
2019-12-23T13:28:42Z,42.805,6.029,13.2971,4.59988,2469.937,2019-12-23T15:29:13Z
2019-12-23T13:31:45Z,42.805,6.029,13.2961,4.59969,2469.914,2019-12-23T15:32:16Z
2019-12-23T13:34:48Z,42.805,6.029,13.2967,4.59978,2469.9,2019-12-23T15:35:19Z
2019-12-23T13:37:52Z,42.805,6.029,13.2972,4.59981,2469.947,2019-12-23T15:38:22Z
2019-12-23T13:40:55Z,42.805,6.029,13.2974,4.59976,2469.9,2019-12-23T15:41:26Z
2019-12-23T13:43:58Z,42.805,6.029,13.2965,4.59983,2469.937,2019-12-23T15:44:29Z
2019-12-23T13:47:01Z,42.805,6.029,13.2966,4.59976,2469.947,2019-12-23T15:47:32Z
2019-12-23T13:50:05Z,42.805,6.029,13.2970,4.59995,2469.96,2019-12-23T15:50:35Z
2019-12-23T13:53:08Z,42.805,6.029,13.2969,4.59985,2469.9,2019-12-23T15:53:39Z
2019-12-23T13:56:11Z,42.805,6.029,13.2965,4.59980,2469.923,2019-12-23T15:56:42Z
2019-12-23T13:59:14Z,42.805,6.029,13.2966,4.59983,2469.937,2019-12-23T15:59:45Z
2019-12-23T14:02:17Z,42.805,6.029,13.2969,4.59996,2469.96,2019-12-23T16:02:48Z
2019-12-23T14:05:21Z,42.805,6.029,13.2967,4.59986,2469.96,2019-12-23T16:05:51Z
2019-12-23T14:08:24Z,42.805,6.029,13.2967,4.59993,2469.937,2019-12-23T16:08:54Z
2019-12-23T14:11:27Z,42.805,6.029,13.2964,4.59979,2469.97,2019-12-23T16:11:58Z
2019-12-23T14:14:30Z,42.805,6.029,13.2964,4.59986,2469.923,2019-12-23T16:15:01Z
2019-12-23T14:17:33Z,42.805,6.029,13.2967,4.59988,2469.923,2019-12-23T16:18:04Z
2019-12-23T14:20:37Z,42.805,6.029,13.2964,4.59976,2469.947,2019-12-23T16:21:07Z
2019-12-23T14:23:40Z,42.805,6.029,13.2976,4.59986,2469.914,2019-12-23T16:24:10Z
2019-12-23T14:26:43Z,42.805,6.029,13.2969,4.59984,2469.947,2019-12-23T16:27:14Z
2019-12-23T14:29:46Z,42.805,6.029,13.2974,4.59986,2469.947,2019-12-23T16:30:17Z
2019-12-23T14:32:49Z,42.805,6.029,13.2971,4.59981,2469.923,2019-12-23T16:33:20Z
2019-12-23T14:35:53Z,42.805,6.029,13.2964,4.59976,2469.947,2019-12-23T16:36:23Z
2019-12-23T14:38:56Z,42.805,6.029,13.2972,4.59991,2469.97,2019-12-23T16:39:27Z
2019-12-23T14:41:59Z,42.805,6.029,13.2971,4.59980,2469.984,2019-12-23T16:42:30Z
2019-12-23T14:45:02Z,42.805,6.029,13.2965,4.59994,2469.9,2019-12-23T16:45:33Z
2019-12-23T14:48:06Z,42.805,6.029,13.2967,4.59987,2469.947,2019-12-23T16:48:36Z
2019-12-23T14:51:09Z,42.805,6.029,13.2966,4.59976,2469.97,2019-12-23T16:51:39Z
2019-12-23T14:54:12Z,42.805,6.029,13.2967,4.59979,2469.97,2019-12-23T16:54:43Z
2019-12-23T14:57:15Z,42.805,6.029,13.2965,4.59986,2469.947,2019-12-23T16:57:46Z
2019-12-23T15:00:18Z,42.805,6.029,13.2968,4.59981,2469.923,2019-12-23T17:00:49Z
2019-12-23T15:03:22Z,42.805,6.029,13.2968,4.59981,2469.97,2019-12-23T17:03:52Z